Regional Weather Roundup
Issued by NWS Goodland, KS

Home | Current Version | Previous Version | Graphics & Text | Print | Product List | Glossary On
Versions: 1 2 3 4 5 6 7 8 9 10 11 12 13 14 15 16 17 18 19 20 21 22 23 24 25 26 27 28 29 30 31 32 33 34 35 36 37 38 39 40 41 42 43 44 45 46 47 48 49 50
080
ASUS43 KGLD 091459
RWRGLD

GOODLAND FORECAST AREA HOURLY WEATHER ROUNDUP
NATIONAL WEATHER SERVICE GOODLAND KS
800 AM MST FRI DEC 09 2016

...OFFICIAL OBSERVATIONS...

CITY           SKY/WX    TMP DP  RH WIND       PRES   REMARKS
GOODLAND KS    CLOUDY    12   7  80 SE10      30.24R WCI  -1
HILL CITY KS   CLOUDY    20   9  62 S12       30.43S WCI   8
IMPERIAL NEB   CLOUDY    13   7  77 S9        30.26S
MCCOOK NEB     CLOUDY    16   8  71 SE8       30.35F
AKRON CO       CLOUDY     8   3  80 SW8       30.11S
BURLINGTON CO  CLOUDY    13   5  70 S14       30.19R WCI  -2
LIMON CO       CLOUDY     7   3  84 CALM      30.13R
$$

...UNOFFICIAL OBSERVATIONS...

CITY           SKY/WX    TMP DP  RH WIND       PRES   REMARKS
COLBY KS       PTCLDY    16  10  79 SE12      30.31S WCI   3
LENORA KS        N/A     18  32 100 MISG        N/A
NORTON KS      CLOUDY    16   9  73 SE13      30.38F WCI   2
SHARON SPRINGS   N/A     15  11  82 SE12        N/A  WCI   2
TRENTON NEB      N/A     15  32 100 S8          N/A
KIT CARSON CO    N/A      9   3  76 MISG        N/A
YUMA CO        FAIR       5   1  85 S3        30.18R
$$




USA.gov is the U.S. government's official web portal to all federal, state and local government web resources and services.